This is the latest recevied weather packets stored in our database for station/object KD6VEX-1. If no packets are shown the sender has not sent any weather packets the latest 1 day(s).
| Time | Temp. | Humidity | Pressure | Rain* | Wind** | Luminosity | Snow |
|---|---|---|---|---|---|---|---|
| 1778039735 | 13.89° C | 76% | 1016.3 hPa | 0 mm | - | - | - |
| 1778039435 | 13.89° C | 75% | 1016.2 hPa | 0 mm | - | - | - |
| 1778039135 | 13.89° C | 75% | 1016.1 hPa | 0 mm | - | - | - |
| 1778038836 | 13.89° C | 74% | 1016 hPa | 0 mm | - | - | - |
| 1778038535 | 14.44° C | 74% | 1015.9 hPa | 0 mm | - | - | - |
| 1778038235 | 14.44° C | 73% | 1015.9 hPa | 0 mm | - | - | - |
| 1778037935 | 14.44° C | 72% | 1015.7 hPa | 0 mm | - | - | - |
| 1778037635 | 15° C | 71% | 1015.6 hPa | 0 mm | - | - | - |
| 1778037335 | 15° C | 71% | 1015.5 hPa | 0 mm | - | - | - |
| 1778037035 | 15° C | 70% | 1015.4 hPa | 0 mm | - | - | - |
| 1778036736 | 15° C | 70% | 1015.4 hPa | 0 mm | - | - | - |
| 1778036135 | 15.56° C | 68% | 1015.2 hPa | 0 mm | - | - | - |
| 1778035836 | 15.56° C | 67% | 1015.1 hPa | 0 mm | - | - | - |
| 1778035535 | 15.56° C | 67% | 1015 hPa | 0 mm | - | - | - |
| 1778035235 | 16.11° C | 66% | 1014.9 hPa | 0 mm | - | - | - |
| 1778034935 | 16.11° C | 66% | 1014.8 hPa | 0 mm | - | - | - |
| 1778034635 | 16.11° C | 65% | 1014.7 hPa | 0 mm | - | - | - |
| 1778034036 | 16.67° C | 63% | 1014.6 hPa | 0 mm | - | - | - |
| 1778033737 | 17.22° C | 62% | 1014.6 hPa | 0 mm | - | - | - |
| 1778033435 | 17.22° C | 62% | 1014.7 hPa | 0 mm | - | - | - |
| 1778033137 | 17.22° C | 61% | 1014.6 hPa | 0 mm | - | - | - |
| 1778032535 | 17.78° C | 60% | 1014.5 hPa | 0 mm | - | - | - |
| 1778032237 | 17.78° C | 60% | 1014.3 hPa | 0 mm | - | - | - |
| 1778031935 | 18.33° C | 57% | 1014.3 hPa | 0 mm | - | - | - |
| 1778031635 | 19.44° C | 55% | 1014.2 hPa | 0 mm | - | - | - |
* Rain latest hour (hover to see other rain measurements)
** Current wind speed in m/s (hover to see current wind gust speed)